Regional Weather Roundup
Issued by NWS

Home | Current Version | Previous Version | Text Only | Print | Product List | Glossary On
Versions: 1 2 3 4 5 6 7 8 9 10 11 12 13 14 15 16 17 18 19 20 21 22 23 24 25 26 27 28 29 30 31 32 33 34 35 36 37 38 39 40 41 42 43 44 45 46 47 48 49 50
000
ASUS45 KBOI 211910
RWRID
WEATHER ROUNDUP FOR IDAHO
NATIONAL WEATHER SERVICE BOISE ID
100 PM MDT TUE OCT 21 2014

NOTE: "FAIR" INDICATES FEW OR NO CLOUDS BELOW 12000 FEET
WITH NO SIGNIFICANT WEATHER AND/OR OBSTRUCTIONS TO VISIBILITY

IDZ012-014-212000-
SOUTHWEST IDAHO


CITY           SKY/WX    TMP DP  RH WIND       PRES   REMARKS
BOISE          MOSUNNY   54  46  74 N5        30.05R
CALDWELL       MOSUNNY   57  37  47 W15       30.06S
MOUNTAIN HOME  PTSUNNY   56  44  63 W15G23    30.04S
$$

IDZ016-017-212000-
SOUTHCENTRAL IDAHO


CITY           SKY/WX    TMP DP  RH WIND       PRES   REMARKS
BURLEY         LGT RAIN  53  36  52 W18G31    30.03S
JEROME         PTSUNNY   50  39  66 SW22G29   30.05R
TWIN FALLS     MOSUNNY   53  37  54 W28G38    30.05R
$$

IDZ019>023-212000-
SOUTHEAST IDAHO


CITY           SKY/WX    TMP DP  RH WIND       PRES   REMARKS
IDAHO FALLS    PTSUNNY   49  37  63 SW30G37   30.00S
POCATELLO      MOSUNNY   52  37  56 SW18G26   30.05F
REXBURG        CLOUDY    46  35  65 S20G25    30.00R
$$

IDZ006-010-011-018-031-032-212000-
CENTRAL IDAHO MOUNTAINS


CITY           SKY/WX    TMP DP  RH WIND       PRES   REMARKS
MCCALL         LGT RAIN  42  38  85 W5        29.99S
HAILEY         PTSUNNY   45  36  70 S9G18     30.04R
STANLEY          N/A     38  35  89 SE7       30.01R WCI  33
SALMON         CLOUDY    43  37  81 CALM      29.95R
CHALLIS        LGT RAIN  45  35  68 W7        29.96R
$$

IDZ002-004-006-007-026-212000-
NORTHERN IDAHO


CITY           SKY/WX    TMP DP  RH WIND       PRES   REMARKS
LEWISTON       MOSUNNY   60  49  66 E3        29.95R
LOWELL           N/A     51  49  92 CALM      29.99R
COEUR D`ALENE  CLOUDY    52  43  71 W13G20    29.92R
MULLAN PASS    CLOUDY    35  35 100 VRB7      29.91R FOG     WCI  29
$$



USA.gov is the U.S. government's official web portal to all federal, state and local government web resources and services.